Temperature
9 7 6 7 7 8 8 7 7 8 8 8 6 6 6 6 6 5 5 6 5 6 6 7 7 7 8 8 8 8 8 8 8 8 9 9 9 9 9 9 9 9 9 10
6 6 7 8 7 7 7 7 6 7 8 7 6 5 5 5 5 5 4 4 5 5 5 6 6 7 7 7 7 7 7 7 7 8 8 8 8 8 9 9 9 9 9 9
6 7 8 7 7 7 7 6 6 6 6 6 6 5 5 5 4 4 4 4 4 4 4 5 5 5 6 6 6 6 6 7 7 7 7 7 7 7 8 8 8 8 9 9
6 6 7 6 6 6 6 6 6 6 5 4 5 4 4 4 3 3 2 2 2 2 3 3 4 4 4 5 5 5 6 6 6 6 6 6 7 7 7 7 7 8 8 8
5 6 6 6 6 6 5 6 5 5 4 4 4 3 3 3 2 1 1 1 2 2 2 2 3 3 4 4 4 5 5 5 5 6 6 6 6 6 6 6 7 7 7 7
5 6 6 5 6 6 5 5 5 4 3 3 4 3 2 1 1 1 1 1 1 1 1 2 2 3 3 3 4 4 4 5 5 5 5 5 5 5 6 6 6 6 7 7
4 5 5 5 5 5 4 3 3 3 3 3 4 3 1 1 0 0 0 0 1 1 1 1 1 2 2 3 3 3 3 4 4 4 4 5 5 5 5 5 5 6 6 6
3 3 4 4 4 4 4 3 3 3 3 3 3 2 0 1 0 0 0 0 0 0 0 1 1 1 1 2 2 2 3 3 3 3 4 4 4 4 4 5 5 5 5 5
2 2 4 4 4 4 3 2 3 2 1 1 1 0 0 1 -0 -1 -1 -1 -1 -1 -0 -0 0 0 1 1 1 2 2 2 2 3 3 3 3 3 4 4 4 4 4 5
2 1 2 3 4 3 3 2 1 1 2 2 1 0 -0 -1 -1 -1 -2 -2 -2 -1 -1 -1 -1 -0 0 0 1 1 1 1 2 2 2 2 3 3 3 3 4 4 4 4
1 1 1 2 2 2 2 1 1 0 1 1 0 0 -0 -1 -2 -2 -2 -2 -2 -2 -2 -2 -1 -1 -1 -0 -0 0 1 1 1 1 2 2 2 2 2 3 3 3 3 3
0 -0 -1 0 1 2 1 1 -0 -0 -0 -1 -1 -1 -1 -2 -2 -2 -2 -2 -2 -2 -2 -2 -2 -2 -1 -1 -1 -1 -0 0 0 1 1 1 1 1 2 2 2 3 3 3
0 -1 -1 0 1 0 0 0 -0 -1 -1 -2 -2 -1 -1 -2 -2 -2 -3 -3 -3 -3 -2 -2 -2 -2 -2 -2 -2 -1 -1 -1 -0 -0 0 0 1 1 1 1 2 2 2 2
1 -1 -1 -0 -0 -1 -1 -1 -1 -1 -2 -2 -2 -2 -2 -3 -3 -3 -3 -3 -3 -3 -3 -3 -3 -3 -3 -3 -2 -2 -2 -1 -1 -1 -1 -0 -0 0 0 1 1 1 1 2
-0 -2 -2 -1 -1 -1 -1 -1 -1 -2 -2 -3 -3 -3 -3 -4 -4 -4 -4 -4 -4 -4 -4 -4 -4 -3 -3 -3 -3 -3 -2 -2 -2 -1 -1 -1 -1 -1 -0 0 0 1 1 1
-2 -2 -2 -2 -1 -1 -1 -2 -2 -2 -2 -3 -3 -3 -4 -4 -4 -4 -4 -4 -4 -5 -4 -4 -4 -4 -4 -3 -3 -3 -3 -3 -2 -2 -2 -1 -1 -1 -1 -1 -0 0 0 1
-3 -3 -3 -3 -2 -2 -3 -3 -3 -3 -4 -4 -4 -4 -5 -5 -4 -5 -5 -5 -5 -5 -5 -5 -4 -4 -4 -4 -4 -4 -3 -3 -3 -2 -2 -2 -2 -2 -2 -1 -1 -1 -0 -0
-3 -3 -4 -4 -3 -3 -3 -3 -3 -4 -5 -5 -5 -5 -5 -5 -5 -4 -4 -5 -5 -5 -5 -5 -5 -4 -4 -4 -4 -4 -4 -3 -3 -3 -3 -3 -2 -2 -2 -2 -2 -2 -1 -1
-3 -4 -4 -4 -4 -4 -4 -3 -4 -5 -5 -6 -6 -5 -5 -5 -5 -4 -5 -5 -5 -5 -5 -5 -5 -5 -4 -4 -4 -4 -4 -4 -4 -3 -3 -3 -3 -3 -3 -2 -2 -2 -2 -1
-4 -5 -5 -5 -4 -4 -4 -4 -4 -4 -5 -5 -6 -6 -6 -6 -6 -6 -5 -6 -6 -6 -5 -5 -5 -5 -5 -4 -4 -4 -4 -4 -4 -4 -4 -4 -4 -3 -3 -3 -3 -3 -2 -2
-5 -6 -6 -6 -5 -5 -5 -5 -4 -5 -5 -5 -5 -6 -6 -6 -6 -6 -6 -6 -6 -6 -6 -5 -5 -5 -5 -5 -5 -5 -5 -5 -4 -4 -4 -4 -4 -4 -4 -4 -3 -3 -3 -3
-5 -6 -6 -6 -6 -6 -5 -5 -6 -6 -5 -5 -6 -6 -6 -6 -6 -6 -6 -6 -6 -6 -6 -6 -6 -6 -6 -6 -5 -5 -5 -5 -5 -5 -5 -5 -5 -4 -4 -4 -4 -4 -4 -4
-6 -6 -6 -6 -6 -5 -5 -5 -5 -5 -6 -6 -6 -6 -7 -7 -7 -7 -7 -7 -7 -7 -7 -7 -6 -6 -6 -6 -6 -6 -5 -5 -5 -5 -5 -5 -5 -5 -5 -5 -4 -4 -4 -4
-7 -6 -7 -7 -7 -6 -5 -5 -6 -6 -6 -6 -7 -7 -7 -7 -7 -7 -8 -8 -8 -7 -8 -7 -7 -7 -7 -7 -7 -6 -6 -6 -6 -6 -6 -6 -6 -6 -6 -5 -5 -5 -5 -5
-7 -7 -7 -7 -7 -6 -6 -6 -6 -7 -7 -7 -7 -7 -8 -8 -8 -8 -8 -8 -8 -8 -8 -8 -8 -8 -7 -7 -7 -7 -7 -7 -7 -6 -6 -6 -6 -6 -6 -6 -6 -6 -6 -6
-7 -8 -8 -7 -7 -7 -6 -6 -7 -7 -7 -8 -8 -8 -8 -8 -9 -9 -9 -9 -9 -9 -9 -9 -8 -8 -8 -8 -7 -7 -7 -7 -7 -7 -7 -7 -7 -7 -7 -6 -6 -6 -6 -6
Wind_Speed
3 4 0 3 4 3 3 3 5 5 2 1 1 3 5 4 4 3 4 3 3 4 4 4 4 4 4 3 3 2 3 2 1 1 0 0 1 1 1 1 2 3 3 4
5 2 4 3 1 1 1 2 4 5 3 1 2 3 3 4 4 3 3 3 4 6 7 7 6 5 4 3 3 2 2 2 1 1 1 1 1 1 1 0 1 1 3 4
2 2 3 2 3 2 2 3 4 5 5 2 1 3 2 4 6 7 6 6 6 5 6 7 6 5 5 4 3 2 2 2 2 2 1 1 1 1 1 1 1 1 2 3
1 3 3 3 2 1 4 3 5 5 3 4 1 4 2 3 6 8 8 8 8 8 7 7 7 7 6 5 4 3 2 2 2 1 0 1 1 1 2 2 1 1 1 2
3 3 3 3 4 2 4 5 5 4 3 3 2 3 4 4 5 7 7 7 7 7 7 7 7 7 6 6 5 3 2 2 2 1 0 1 1 1 1 1 1 1 0 1
3 3 2 3 4 2 3 4 3 2 2 3 4 5 3 3 3 6 6 6 7 7 7 7 7 8 7 7 6 5 3 3 2 2 1 1 1 1 1 1 1 1 1 1
6 4 4 4 4 5 5 4 3 4 2 4 1 3 1 2 3 3 5 6 6 6 6 7 8 9 9 8 7 6 4 3 3 2 2 1 1 2 2 3 2 2 1 1
4 6 4 4 2 2 1 2 3 3 4 4 2 2 2 1 3 3 4 5 6 6 6 6 6 7 7 8 7 7 5 4 3 2 3 2 1 1 2 2 2 2 2 2
1 5 4 4 2 0 1 1 2 2 2 3 3 1 2 4 6 7 7 8 8 8 7 6 7 7 7 7 7 6 5 5 4 3 3 3 2 2 2 2 1 1 1 1
1 4 5 5 3 3 1 1 3 1 2 4 4 2 2 5 6 7 7 8 8 8 8 7 7 7 7 6 6 6 6 5 5 4 3 2 3 3 2 1 1 1 1 1
1 1 5 4 1 2 1 1 1 1 2 2 3 4 0 1 3 5 6 6 7 7 7 7 7 7 6 6 6 7 7 7 6 6 4 3 3 3 2 1 1 1 0 1
1 1 3 5 3 1 2 1 2 2 3 2 3 4 1 2 3 4 5 6 7 7 6 6 7 7 7 7 7 7 7 7 6 6 5 3 2 2 2 2 1 1 0 1
1 2 3 5 3 4 2 1 0 1 1 3 3 5 1 4 5 6 6 7 7 7 7 6 7 7 8 8 7 7 7 7 6 6 5 4 3 2 2 2 1 1 1 0
2 2 4 6 5 2 4 4 2 1 3 4 5 7 6 7 8 8 7 7 6 6 6 7 7 7 8 8 7 7 7 7 7 6 5 5 4 3 2 2 1 0 0 0
2 2 4 7 6 4 5 5 3 4 4 5 6 7 7 6 6 6 6 7 7 8 8 8 8 7 8 8 8 8 7 7 7 6 5 5 5 4 3 2 1 1 0 0
1 1 2 4 4 3 4 5 4 4 4 5 7 7 4 5 4 5 6 6 6 8 9 9 9 8 8 9 9 8 8 7 6 5 5 5 5 4 3 2 1 1 0 0
1 1 1 4 4 3 4 4 3 2 1 2 5 5 5 6 7 5 5 5 6 8 9 9 9 8 8 8 8 8 8 7 6 5 6 5 5 5 4 3 2 1 0 1
3 2 2 2 3 3 4 1 0 1 1 1 2 3 5 6 8 5 3 4 7 8 9 9 8 9 8 7 8 7 7 6 5 5 6 6 5 5 4 3 2 2 1 0
3 3 2 1 2 5 3 2 0 1 3 1 2 5 6 7 5 4 3 5 7 8 8 8 7 7 7 7 7 7 6 6 5 5 6 6 5 5 4 4 3 2 1 1
3 3 3 2 2 5 4 3 2 0 4 1 2 5 6 5 4 5 6 8 9 8 7 7 7 7 7 7 7 6 6 5 5 6 6 6 5 5 4 4 3 2 2 2
1 2 1 3 4 6 4 4 1 2 5 3 3 4 4 4 6 8 9 8 7 8 8 7 7 6 7 7 6 6 6 5 6 6 6 5 5 5 4 3 3 2 2 3
4 2 3 2 3 6 2 2 3 5 3 3 4 5 5 7 8 8 8 8 8 8 8 7 7 7 7 6 6 6 6 5 5 5 5 5 5 5 4 3 3 3 2 2
4 5 4 6 6 4 2 3 3 2 3 4 4 5 5 6 7 8 8 7 7 8 7 7 6 7 7 6 5 6 6 5 5 5 5 4 5 4 4 3 3 3 2 2
3 2 3 4 5 4 3 2 2 2 2 4 4 5 5 6 7 8 7 7 7 7 7 7 7 7 7 7 7 6 5 4 4 4 4 4 4 4 4 3 3 2 2 2
4 3 2 4 5 4 3 2 3 3 3 4 4 4 4 5 6 6 7 7 7 8 7 6 6 7 7 7 7 7 6 4 4 4 4 4 4 3 3 3 3 3 2 2
3 4 4 6 5 4 5 3 2 3 4 4 4 5 5 5 6 6 6 6 6 7 7 7 7 7 7 7 7 7 6 5 3 4 4 3 3 3 3 3 3 5 5 5
Wind_Direction
38 66 32 251 226 225 215 229 263 268 298 320 240 287 322 5 25 12 14 16 13 354 346 7 17 27 33 33 30 32 14 357 19 25 194 177 227 263 281 138 163 170 170 164
41 355 271 279 303 244 232 262 279 291 317 272 263 305 351 11 21 12 11 5 4 3 6 13 17 22 23 18 6 13 5 353 326 281 262 237 216 234 245 101 123 167 178 173
129 290 321 28 22 355 264 230 263 278 317 316 289 303 352 11 28 26 22 19 13 9 4 6 9 11 13 8 355 345 343 351 346 345 13 18 27 23 359 288 257 234 187 183
24 334 16 30 356 310 269 265 271 274 299 283 221 268 295 350 17 16 12 14 9 5 5 7 6 2 359 348 344 346 351 356 351 14 92 151 196 236 254 256 261 291 187 173
341 348 13 1 322 317 269 298 285 256 216 271 257 212 294 12 7 357 355 356 356 357 1 2 1 355 351 347 346 342 354 2 359 1 305 199 250 278 293 269 252 256 261 188
331 349 21 323 317 318 311 341 346 38 106 256 237 189 291 357 335 341 343 344 348 353 356 358 356 359 356 353 352 352 346 348 350 351 342 242 229 255 254 251 235 234 243 227
343 344 356 355 355 7 37 48 10 352 337 252 217 171 241 340 350 341 335 338 342 349 356 357 359 359 355 352 351 350 343 336 338 338 333 302 245 230 228 232 225 228 222 215
356 319 338 352 353 313 330 128 156 239 253 287 323 207 197 355 355 354 353 352 357 356 354 355 353 352 349 349 349 349 343 334 330 329 325 324 313 258 259 259 241 225 222 215
349 290 320 336 334 69 19 246 201 189 269 268 262 271 275 8 10 13 12 10 2 355 349 351 351 350 348 347 346 343 340 337 330 321 325 329 328 320 301 285 261 223 236 219
176 283 307 326 356 8 98 147 77 119 270 267 282 251 270 321 338 350 356 353 347 345 348 350 350 346 345 344 345 347 349 345 333 328 318 318 312 313 306 295 267 247 248 235
59 244 312 344 346 310 27 48 115 191 222 228 272 269 231 282 329 337 333 335 335 342 344 344 345 344 345 349 349 350 350 349 345 333 318 316 312 318 321 298 261 232 212 196
30 118 283 277 289 344 122 150 144 182 268 227 240 265 37 9 347 348 339 338 338 342 345 347 352 354 352 350 349 347 345 345 338 330 323 322 326 331 340 333 330 30 87 152
77 99 340 333 330 8 26 7 71 173 203 223 230 264 352 1 349 344 338 335 336 341 347 351 355 354 349 344 341 338 339 339 339 337 332 327 332 334 330 325 331 11 30 55
94 157 194 231 256 278 291 302 305 187 225 245 242 271 309 335 333 332 333 330 335 343 348 350 349 345 341 340 338 333 334 338 341 339 335 334 330 319 313 319 311 296 22 201
83 226 245 255 263 253 266 280 262 230 231 235 265 270 289 305 305 315 323 333 350 350 347 343 341 337 336 338 337 335 334 336 338 338 338 333 329 321 327 336 307 275 182 260
48 246 291 281 262 261 280 293 266 251 251 251 271 277 295 305 318 333 338 340 342 337 334 334 333 333 331 331 330 331 332 331 334 336 337 338 337 334 335 335 326 340 5 329
221 161 299 282 307 324 289 283 259 229 246 239 258 279 317 323 327 321 318 329 326 323 325 325 322 318 318 319 321 322 324 328 335 339 341 342 344 340 336 338 355 6 342 33
175 170 196 280 359 259 249 309 316 187 278 333 292 303 308 302 299 285 288 321 321 319 319 317 315 315 317 319 324 323 327 331 337 341 342 341 344 339 337 347 356 348 347 40
174 164 166 200 253 271 289 312 341 247 268 312 295 309 317 319 311 292 321 334 315 306 305 305 306 308 314 318 323 327 330 335 339 339 336 335 336 334 339 344 344 349 8 27
70 106 143 174 224 248 254 284 307 157 270 308 307 300 313 336 323 294 317 321 315 313 313 313 316 316 316 318 325 328 328 334 331 327 326 328 330 333 336 336 342 359 17 22
27 44 162 208 234 262 265 292 26 190 268 294 282 283 291 278 258 284 304 309 310 312 314 319 321 319 315 317 324 323 321 319 318 322 328 331 334 335 337 349 354 10 24 37
186 188 210 189 222 255 268 102 178 234 280 290 286 283 281 279 286 298 306 310 317 321 324 326 324 321 322 325 325 319 317 319 326 329 330 332 338 341 346 0 2 11 30 44
199 198 199 201 220 244 207 202 235 244 270 284 288 294 290 292 298 306 312 314 316 319 322 323 322 322 326 331 331 320 319 324 329 333 332 334 339 345 349 357 0 4 14 23
261 210 196 247 263 259 250 248 289 289 275 289 291 292 297 294 301 309 315 320 321 321 321 325 328 328 328 330 330 323 319 324 328 327 328 333 339 346 354 354 354 355 352 354
234 194 215 253 277 299 265 256 278 290 300 303 304 299 299 301 305 307 312 318 319 323 324 326 325 324 323 327 328 330 330 327 329 326 327 334 337 338 343 348 349 344 337 325
209 194 201 237 235 228 255 261 279 296 304 304 308 310 312 305 302 308 309 312 316 320 323 326 327 326 325 328 330 332 332 330 330 330 332 331 330 332 336 339 347 354 352 353
Height
1514 1518 1521 1520 1519 1518 1519 1521 1522 1518 1515 1516 1517 1517 1516 1514 1512 1511 1510 1510 1508 1508 1507 1506 1505 1505 1504 1504 1504 1504 1505 1505 1505 1505 1505 1505 1506 1507 1508 1509 1510 1511 1512 1513
1519 1521 1518 1517 1518 1518 1519 1521 1521 1518 1515 1516 1517 1517 1516 1514 1514 1513 1512 1510 1509 1507 1506 1504 1504 1503 1502 1502 1502 1502 1502 1502 1502 1503 1503 1503 1503 1504 1505 1506 1507 1508 1509 1509
1521 1521 1517 1517 1518 1519 1519 1521 1521 1521 1517 1515 1517 1517 1516 1514 1514 1513 1512 1511 1509 1508 1506 1504 1503 1502 1502 1501 1501 1501 1500 1500 1500 1500 1500 1500 1500 1501 1501 1502 1503 1504 1505 1506
1522 1520 1519 1519 1519 1519 1520 1518 1518 1518 1522 1524 1519 1524 1518 1516 1515 1515 1514 1512 1510 1509 1507 1505 1503 1502 1501 1501 1500 1500 1499 1498 1498 1498 1497 1497 1496 1496 1497 1498 1500 1501 1502 1503
1524 1522 1521 1521 1521 1519 1519 1517 1516 1516 1520 1524 1521 1525 1522 1518 1519 1518 1517 1514 1512 1510 1507 1505 1503 1502 1501 1500 1499 1498 1497 1496 1496 1495 1495 1494 1494 1494 1495 1496 1496 1497 1498 1499
1525 1523 1523 1523 1520 1519 1519 1518 1516 1519 1522 1526 1520 1525 1524 1526 1523 1521 1518 1515 1513 1510 1508 1506 1504 1502 1500 1499 1497 1496 1495 1494 1493 1493 1492 1492 1492 1492 1492 1492 1493 1493 1494 1495
1529 1526 1525 1523 1522 1521 1522 1526 1529 1528 1529 1523 1518 1522 1529 1526 1524 1522 1519 1516 1513 1511 1508 1506 1503 1501 1499 1497 1496 1494 1493 1492 1491 1490 1489 1489 1489 1489 1489 1489 1489 1490 1490 1491
1538 1535 1528 1526 1526 1526 1526 1527 1535 1536 1532 1526 1521 1525 1530 1525 1523 1521 1519 1517 1514 1511 1508 1506 1504 1502 1499 1497 1495 1493 1491 1490 1489 1488 1487 1486 1486 1486 1486 1486 1486 1487 1487 1488
1541 1537 1529 1527 1526 1526 1527 1530 1530 1535 1534 1533 1527 1529 1526 1524 1522 1521 1519 1516 1514 1512 1509 1507 1504 1501 1499 1496 1494 1492 1490 1488 1487 1486 1485 1484 1483 1483 1483 1483 1483 1483 1484 1485
1540 1541 1533 1529 1527 1527 1528 1529 1535 1536 1534 1531 1526 1529 1530 1526 1524 1522 1520 1517 1515 1512 1509 1507 1504 1501 1498 1496 1494 1491 1489 1487 1485 1484 1483 1482 1481 1481 1480 1480 1480 1480 1481 1482
1540 1542 1538 1534 1532 1531 1531 1533 1534 1536 1535 1534 1534 1531 1527 1527 1525 1524 1521 1518 1516 1513 1510 1507 1504 1501 1498 1495 1493 1490 1488 1486 1484 1482 1481 1480 1478 1478 1477 1477 1477 1478 1478 1479
1541 1544 1544 1538 1533 1531 1531 1533 1536 1540 1539 1538 1537 1535 1526 1526 1525 1523 1521 1519 1516 1513 1510 1507 1504 1500 1497 1494 1492 1489 1487 1484 1482 1481 1479 1477 1476 1475 1474 1474 1474 1475 1475 1476
1541 1545 1547 1540 1539 1536 1535 1535 1535 1537 1540 1541 1540 1535 1527 1526 1524 1523 1520 1518 1515 1513 1510 1506 1503 1500 1497 1494 1491 1488 1485 1483 1481 1479 1477 1475 1473 1472 1472 1472 1472 1472 1472 1473
1539 1544 1547 1545 1539 1539 1538 1536 1535 1537 1541 1539 1536 1532 1528 1527 1525 1523 1520 1517 1515 1512 1509 1506 1503 1500 1497 1494 1490 1487 1484 1482 1479 1477 1475 1473 1471 1470 1469 1469 1470 1470 1470 1470
1539 1544 1543 1540 1537 1536 1536 1535 1534 1536 1537 1538 1534 1532 1529 1527 1525 1523 1520 1517 1514 1511 1508 1505 1502 1499 1496 1493 1489 1486 1483 1480 1478 1476 1474 1472 1470 1469 1467 1467 1467 1467 1467 1467
1541 1543 1542 1539 1535 1534 1534 1534 1532 1532 1533 1533 1531 1530 1528 1526 1524 1521 1519 1516 1513 1511 1508 1505 1501 1498 1495 1492 1488 1485 1482 1479 1477 1475 1473 1471 1469 1467 1466 1464 1464 1464 1464 1465
1542 1544 1545 1542 1537 1535 1538 1535 1532 1532 1532 1533 1532 1532 1528 1526 1523 1521 1518 1515 1513 1510 1507 1504 1501 1497 1494 1491 1488 1484 1481 1478 1476 1473 1471 1470 1468 1466 1464 1463 1462 1462 1462 1462
1541 1543 1545 1544 1542 1543 1539 1533 1532 1532 1533 1532 1531 1530 1528 1526 1522 1520 1518 1515 1512 1509 1506 1502 1499 1496 1492 1489 1486 1483 1480 1477 1475 1472 1470 1468 1467 1465 1463 1461 1460 1460 1460 1460
1537 1541 1546 1545 1546 1541 1537 1533 1533 1534 1533 1531 1530 1528 1526 1524 1520 1517 1516 1514 1511 1508 1504 1501 1497 1494 1491 1488 1485 1482 1479 1476 1473 1471 1469 1467 1466 1464 1462 1461 1460 1459 1459 1459
1538 1540 1545 1546 1544 1540 1536 1532 1531 1533 1532 1530 1528 1527 1525 1523 1522 1517 1514 1511 1508 1505 1502 1498 1495 1492 1489 1486 1483 1480 1477 1474 1472 1470 1468 1467 1465 1463 1461 1460 1460 1459 1458 1458
1543 1545 1547 1546 1546 1540 1534 1531 1530 1536 1532 1528 1526 1525 1524 1522 1521 1516 1512 1509 1506 1502 1499 1496 1493 1490 1487 1484 1481 1478 1476 1473 1471 1470 1468 1466 1465 1463 1461 1460 1459 1458 1457 1457
1543 1545 1547 1546 1547 1541 1531 1530 1532 1531 1527 1526 1525 1523 1521 1519 1516 1513 1510 1507 1503 1499 1496 1493 1490 1487 1484 1482 1479 1476 1474 1472 1471 1469 1467 1465 1463 1462 1461 1460 1459 1458 1457 1456
1540 1539 1539 1539 1536 1530 1528 1528 1528 1527 1526 1524 1522 1521 1519 1516 1513 1510 1507 1504 1500 1497 1494 1491 1488 1485 1482 1480 1478 1475 1473 1471 1469 1467 1466 1464 1463 1462 1461 1459 1458 1457 1457 1456
1535 1533 1534 1533 1529 1527 1527 1526 1526 1525 1523 1522 1520 1518 1516 1513 1510 1507 1504 1501 1498 1495 1492 1488 1485 1482 1480 1478 1476 1474 1471 1469 1468 1466 1464 1463 1462 1461 1460 1459 1458 1457 1457 1456
1531 1531 1531 1530 1527 1525 1524 1524 1523 1522 1520 1519 1517 1515 1513 1510 1507 1504 1501 1498 1495 1492 1489 1486 1483 1480 1478 1476 1474 1472 1470 1468 1466 1465 1463 1462 1461 1460 1459 1458 1458 1457 1456 1456
1527 1528 1529 1526 1523 1524 1522 1521 1521 1519 1518 1516 1514 1511 1510 1507 1504 1501 1498 1495 1492 1489 1486 1483 1480 1478 1476 1474 1472 1470 1468 1466 1465 1463 1462 1461 1460 1459 1458 1457 1456 1456 1456 1455